Wind_Speed
75 73 71 68 66 63 62 61 57 53 52 50 46 45 43 43 42 41 39 39 42 42 43 42 41 41 42 41 42 44 43 41 41 42 43 44 43 42 42 43 45 45 45 45 47 46 46 46 47
75 76 74 71 67 67 68 63 60 57 56 53 50 47 47 49 50 48 47 46 47 47 47 47 47 47 47 46 47 48 48 48 45 45 47 48 48 49 48 47 47 49 49 49 50 51 51 52 54
77 76 75 74 69 69 71 66 60 60 59 58 53 51 50 51 51 52 50 50 50 50 51 51 50 50 51 52 51 52 52 52 52 52 52 52 52 51 50 50 52 53 54 53 54 56 58 59 60
79 79 77 72 75 77 76 68 65 64 62 62 59 56 55 57 56 56 54 51 53 54 53 52 53 54 55 54 55 55 55 55 57 56 56 56 56 55 55 55 54 56 56 58 58 60 62 63 64
79 77 74 71 71 79 79 71 68 66 64 64 61 60 58 59 58 57 58 56 54 54 54 54 54 55 56 57 58 59 60 60 58 58 59 60 58 59 58 58 60 61 62 62 64 66 66 68 70
80 76 72 70 74 78 77 75 72 69 67 64 62 58 58 59 60 60 61 60 57 56 56 56 55 55 56 57 59 60 60 60 60 61 59 60 62 62 63 64 64 65 64 65 67 68 71 73 74
80 77 74 74 78 75 75 71 70 67 66 67 65 58 59 63 65 64 62 61 60 60 60 59 58 58 58 58 59 61 60 61 62 62 63 64 65 66 66 66 65 64 66 69 71 73 75 76 77
81 79 75 75 78 80 77 71 69 66 67 68 65 61 62 62 63 64 65 64 62 62 63 62 61 60 60 61 62 63 64 65 65 65 64 64 64 66 67 69 70 71 73 76 77 79 79 78 79
84 79 76 77 82 84 82 75 69 66 65 65 65 64 64 63 65 65 64 65 63 63 65 63 63 64 64 65 63 64 66 66 67 68 67 68 70 72 74 74 75 79 82 82 81 82 82 82 83
86 79 79 82 86 89 84 77 73 68 65 65 67 67 66 64 66 69 69 69 67 66 65 66 66 66 66 67 65 65 63 67 69 70 71 72 73 73 74 78 80 81 80 80 81 84 82 83 82
87 83 85 88 88 89 85 79 74 71 70 72 72 72 69 67 66 71 72 72 71 71 71 69 70 69 69 69 69 70 71 71 71 72 75 76 76 78 78 78 80 80 83 83 83 83 83 82 81
90 87 89 91 90 89 85 80 78 75 74 74 75 75 72 71 71 71 73 73 73 73 74 73 72 73 73 72 72 73 76 75 76 77 78 78 78 77 78 80 82 83 84 86 83 83 82 81 77
94 94 91 93 92 88 85 83 83 79 78 74 76 73 73 73 74 73 74 75 75 73 72 72 72 73 75 75 75 76 77 77 76 76 76 77 79 79 80 81 83 82 83 84 82 80 78 78 74
96 95 94 92 89 85 84 85 85 80 79 79 81 77 75 72 78 78 78 77 77 76 74 74 75 76 76 77 78 77 77 79 78 76 78 79 79 79 80 79 78 79 81 81 78 76 74 73 71
97 95 91 88 88 86 86 83 76 82 82 80 77 76 74 72 74 77 78 78 78 78 78 78 79 80 79 77 76 77 76 77 77 78 77 78 77 77 77 77 76 75 74 75 73 71 71 69 69
98 95 92 91 92 89 87 77 81 81 85 78 75 74 74 76 76 78 79 79 78 75 76 77 76 75 76 77 75 71 67 64 66 68 68 71 72 71 71 67 67 67 67 67 67 67 68 67 67
93 92 86 90 93 91 86 78 83 81 80 75 74 75 77 78 78 80 81 81 79 78 76 72 73 73 75 74 73 72 66 65 64 63 64 63 63 62 61 61 61 62 60 60 59 60 61 61 63
85 85 85 84 85 84 81 77 83 83 82 79 76 76 78 80 80 82 80 79 80 78 76 74 71 72 74 74 72 70 68 68 66 63 66 64 63 62 59 56 56 60 60 59 59 56 56 57 59
87 82 79 79 79 79 81 76 76 83 79 77 76 76 76 78 82 80 79 77 76 77 76 75 75 74 75 75 74 71 71 73 72 66 68 70 68 66 65 65 60 59 59 58 58 55 56 57 55
84 82 81 80 79 75 73 70 72 75 76 76 76 75 76 76 79 81 78 75 74 76 79 78 77 76 76 76 78 77 76 73 72 72 67 71 71 65 68 64 63 62 62 57 58 59 61 61 61
83 81 82 81 80 76 74 69 70 74 73 75 77 74 73 74 76 78 78 78 76 77 81 83 82 81 81 81 82 82 83 79 74 72 70 69 66 66 64 62 60 61 61 59 61 63 66 64 63
88 87 84 80 81 76 77 70 73 76 76 77 78 78 78 79 80 80 79 79 81 81 83 85 87 88 88 88 88 89 89 86 81 77 73 71 70 72 67 64 66 63 62 65 66 71 69 64 67
91 91 89 86 81 77 78 76 75 80 79 81 81 80 81 83 83 83 84 86 88 89 90 90 91 93 96 96 94 92 90 88 84 78 77 73 71 73 69 67 67 68 70 72 72 74 71 72 72
88 90 91 90 87 82 86 80 79 85 85 84 85 86 85 85 85 87 88 90 93 96 98 99 100 100 101 102 101 99 94 88 85 84 80 78 74 70 70 69 70 72 70 70 73 76 79 76 73
79 82 81 81 83 85 88 86 87 92 91 91 91 90 90 91 92 93 95 98 101 104 105 106 106 107 108 109 107 101 97 91 87 84 81 80 76 73 70 71 72 74 73 72 72 74 77 79 76
74 72 69 70 74 76 79 78 87 95 95 95 95 95 95 96 97 99 102 105 107 108 111 112 110 110 108 106 102 99 95 92 88 85 85 84 80 74 74 74 73 73 74 75 73 72 74 77 76
65 67 70 68 67 66 66 70 80 85 86 86 90 92 92 93 95 97 100 104 106 107 109 110 109 107 106 104 102 99 96 93 89 88 85 84 83 82 80 78 75 74 75 75 75 75 75 75 78
61 62 60 61 60 62 62 64 71 72 74 74 76 81 85 87 89 93 96 99 100 101 101 101 102 103 104 103 102 100 98 96 95 92 88 85 85 85 86 83 78 75 76 75 77 78 77 76 77
65 63 62 60 60 61 62 65 64 64 65 69 71 74 74 77 82 88 91 89 89 92 94 95 96 97 98 97 95 93 91 91 90 88 88 88 87 86 88 87 85 81 79 78 78 79 77 76 73
74 69 65 59 60 62 62 68 65 63 65 65 67 72 75 71 70 73 78 84 87 88 91 92 94 96 97 95 91 89 91 92 91 91 91 89 86 87 87 86 84 82 79 79 79 76 75 72 71
Wind_Direction
229 231 231 233 237 238 239 236 236 237 238 239 240 242 247 251 251 253 251 252 251 246 244 244 244 246 247 247 250 256 260 261 264 265 268 273 275 276 278 276 273 271 268 272 277 276 275 278 280
230 232 234 235 236 237 239 238 238 239 242 242 243 244 246 247 248 250 253 252 254 255 253 249 251 251 249 250 255 258 261 263 265 268 272 275 277 280 281 279 280 279 279 279 280 281 281 283 284
229 231 235 236 236 238 239 239 240 242 242 243 243 246 249 252 254 255 256 255 257 258 258 259 259 257 254 256 259 261 263 265 267 271 274 275 276 276 277 278 279 279 279 279 282 285 286 288 289
227 230 232 235 237 239 241 241 243 245 247 247 247 248 249 253 255 256 259 259 257 258 259 262 264 264 263 265 265 265 267 269 270 273 275 276 276 276 278 279 281 282 283 282 283 286 286 286 288
232 230 230 233 237 239 240 239 242 244 245 247 249 250 251 255 256 257 259 261 262 263 264 265 264 265 266 266 266 267 268 269 271 273 274 274 273 276 278 280 280 282 284 285 286 288 289 288 287
235 234 234 236 238 238 239 239 238 242 246 249 249 249 251 252 254 255 257 260 261 264 264 265 267 267 268 268 268 268 269 271 272 273 273 274 275 277 278 281 281 282 283 285 285 286 286 286 286
234 235 235 237 241 243 241 240 240 241 244 247 247 248 251 253 255 258 259 259 261 263 264 266 266 266 267 268 268 270 271 272 273 274 275 275 276 278 279 280 280 282 283 284 285 286 286 284 285
235 236 237 239 243 244 244 242 243 244 246 249 250 250 251 254 258 258 260 261 260 263 264 265 265 265 267 269 269 271 271 272 273 276 276 277 277 279 280 281 283 284 285 285 284 286 286 285 285
235 234 237 241 243 245 243 242 243 245 248 251 252 251 251 253 256 259 260 262 262 260 263 265 266 268 268 268 269 271 272 273 276 277 278 278 280 281 283 282 282 283 286 285 285 287 287 287 286
235 235 238 241 243 244 244 243 242 243 246 249 251 252 251 252 255 258 260 261 261 263 266 264 264 266 267 269 271 273 276 278 278 278 279 280 281 282 283 283 283 283 284 285 286 287 285 286 286
236 236 238 240 242 244 244 245 245 247 247 251 252 255 256 255 255 258 261 263 264 264 265 266 267 267 269 271 273 274 276 276 277 279 280 280 280 281 283 284 285 285 286 286 286 287 287 286 285
235 236 238 240 241 243 245 245 246 246 248 251 255 256 257 259 259 259 261 263 263 264 265 267 268 269 272 273 273 274 276 277 278 279 281 281 282 282 282 284 284 284 283 284 284 284 283 283 281
233 234 236 239 241 243 245 245 245 247 249 250 254 256 258 259 260 260 262 264 264 265 266 266 268 270 272 273 274 275 276 277 280 281 280 281 281 281 282 283 283 281 281 283 281 281 279 279 279
233 233 236 239 242 244 245 245 246 250 252 250 253 257 260 262 261 261 261 261 263 264 265 267 269 271 273 274 276 276 278 280 280 280 281 281 281 280 280 281 281 282 282 280 280 278 279 280 279
234 235 237 240 242 243 243 246 249 250 252 253 255 257 259 259 259 259 260 261 262 264 267 268 271 272 273 274 275 276 278 279 278 278 278 280 279 279 282 282 284 282 280 278 279 278 277 278 279
231 235 237 238 239 241 243 247 249 248 251 253 255 256 256 256 255 256 259 259 260 263 267 269 270 272 273 275 275 275 274 276 279 280 279 282 282 282 285 283 283 282 281 281 279 278 279 278 278
234 235 238 239 241 242 243 245 249 249 252 251 251 251 253 254 256 256 258 262 262 264 264 266 268 270 273 274 274 276 275 275 278 279 281 283 281 281 282 282 283 282 282 281 280 280 280 281 281
232 231 234 237 240 242 244 242 247 250 250 252 250 249 253 256 256 257 259 261 264 264 262 264 266 270 273 275 275 274 276 274 277 278 279 280 279 277 279 279 281 282 281 281 282 283 284 285 284
231 233 233 236 238 238 241 239 244 249 250 252 253 252 254 255 255 257 257 260 261 263 262 263 265 268 271 273 272 272 276 279 280 279 279 277 277 275 277 281 282 281 279 282 284 284 284 285 288
229 231 232 234 235 235 238 240 240 246 249 251 252 253 252 253 254 256 257 257 260 263 266 265 267 266 268 270 271 273 275 278 278 279 275 273 274 277 279 279 280 280 282 281 282 284 286 288 289
226 228 231 233 235 237 239 237 241 245 248 250 250 251 252 253 253 256 257 259 258 260 263 267 268 267 267 267 269 272 276 277 275 273 271 271 271 273 275 277 277 280 281 280 282 285 286 288 290
229 230 230 233 236 236 237 236 242 244 245 247 249 250 251 253 254 256 258 259 261 262 263 264 266 267 266 266 267 270 273 275 275 272 270 273 272 270 269 270 274 274 276 279 281 284 285 285 288
231 233 233 234 234 236 238 235 246 242 244 245 247 249 250 251 253 257 260 261 262 261 262 263 265 266 268 268 269 271 272 273 273 272 270 269 271 269 265 267 271 271 274 277 279 281 281 283 286
233 236 236 238 238 238 240 238 239 250 245 245 247 248 251 253 254 255 256 258 261 262 263 264 265 267 269 271 272 272 272 271 271 272 269 268 265 265 266 264 267 267 271 273 275 277 280 281 282
232 235 238 239 239 241 244 243 242 245 251 251 249 251 253 254 256 258 260 261 262 264 265 268 270 271 271 271 272 271 270 269 269 270 269 266 264 263 261 265 266 266 268 272 276 277 277 280 282
232 235 237 238 241 242 244 245 247 246 249 252 255 257 257 258 261 263 264 265 266 267 267 268 268 268 268 268 268 268 268 269 267 266 266 265 265 261 261 262 263 265 268 270 272 277 279 279 281
233 235 239 241 242 244 246 247 248 249 251 253 256 260 262 264 264 264 265 265 267 267 268 268 268 267 268 268 267 267 267 267 266 265 263 262 264 264 263 261 261 264 268 271 274 276 279 279 277
237 237 240 241 245 248 249 249 250 252 254 256 257 257 260 264 267 268 268 269 269 269 269 269 268 268 268 267 266 265 265 265 265 264 264 262 262 263 265 264 263 264 267 270 272 276 278 276 276
238 243 244 245 246 248 251 253 254 255 257 259 262 263 266 266 267 268 269 270 270 269 268 267 267 267 267 266 266 266 266 265 263 261 260 261 260 261 262 263 264 266 267 269 271 274 274 273 274
234 240 244 251 249 249 251 256 259 262 265 269 270 271 272 272 273 275 274 273 273 270 269 268 268 267 266 266 266 266 263 262 263 263 262 261 262 260 260 262 264 265 266 268 270 269 269 270 271
Height
10807 10812 10817 10824 10831 10835 10837 10842 10849 10854 10857 10860 10865 10870 10874 10877 10879 10882 10884 10885 10887 10889 10892 10894 10895 10896 10898 10899 10899 10899 10900 10900 10900 10900 10901 10900 10900 10900 10900 10899 10899 10898 10898 10897 10896 10896 10895 10895 10893
10797 10803 10809 10815 10823 10825 10826 10834 10840 10847 10849 10853 10859 10863 10866 10869 10871 10874 10876 10880 10880 10882 10884 10887 10890 10891 10892 10893 10892 10892 10893 10893 10894 10894 10894 10894 10894 10893 10892 10891 10891 10891 10890 10890 10889 10888 10887 10886 10885
10786 10792 10800 10808 10814 10812 10811 10825 10837 10837 10841 10845 10851 10856 10859 10861 10865 10868 10870 10873 10875 10875 10877 10879 10882 10884 10885 10885 10885 10886 10886 10886 10886 10886 10886 10886 10886 10886 10886 10884 10884 10883 10882 10882 10881 10880 10878 10877 10876
10775 10782 10792 10801 10801 10797 10800 10821 10828 10831 10834 10837 10843 10850 10852 10851 10856 10858 10862 10865 10867 10868 10870 10872 10874 10874 10876 10878 10878 10877 10878 10878 10879 10878 10878 10878 10878 10877 10877 10876 10875 10874 10873 10873 10872 10871 10870 10868 10865
10765 10774 10785 10793 10788 10784 10793 10814 10818 10821 10825 10827 10836 10844 10847 10846 10847 10850 10852 10854 10858 10860 10862 10864 10865 10865 10866 10868 10868 10868 10869 10870 10870 10869 10869 10869 10868 10868 10867 10867 10866 10865 10863 10862 10860 10860 10858 10856 10854
10755 10767 10778 10782 10773 10774 10787 10801 10809 10813 10816 10820 10827 10836 10840 10837 10836 10839 10842 10847 10850 10851 10851 10853 10856 10857 10857 10858 10859 10859 10860 10861 10860 10860 10859 10858 10858 10857 10857 10857 10856 10854 10853 10851 10849 10849 10847 10845 10842
10747 10755 10766 10767 10761 10771 10776 10790 10799 10805 10808 10807 10817 10829 10830 10827 10826 10829 10833 10837 10840 10840 10842 10843 10845 10847 10848 10848 10849 10849 10850 10851 10851 10850 10850 10849 10848 10847 10846 10845 10845 10844 10842 10840 10838 10837 10835 10834 10829
10734 10744 10755 10757 10753 10755 10766 10782 10790 10797 10798 10800 10809 10816 10818 10819 10818 10818 10822 10826 10831 10831 10832 10833 10835 10837 10838 10838 10839 10840 10841 10840 10839 10839 10839 10838 10837 10836 10835 10834 10833 10832 10831 10828 10826 10825 10822 10821 10817
10721 10735 10747 10744 10741 10740 10753 10770 10782 10788 10790 10795 10799 10802 10806 10810 10808 10810 10812 10813 10819 10821 10822 10825 10826 10827 10827 10827 10828 10830 10830 10830 10829 10827 10827 10827 10826 10826 10825 10824 10822 10819 10817 10815 10812 10810 10808 10807 10803
10711 10729 10733 10729 10725 10727 10744 10762 10772 10779 10784 10784 10785 10787 10795 10802 10800 10797 10800 10803 10806 10811 10814 10815 10816 10816 10816 10816 10818 10819 10820 10819 10817 10816 10815 10815 10814 10813 10811 10811 10809 10804 10802 10800 10797 10795 10792 10790 10788
10702 10716 10715 10712 10712 10716 10736 10751 10762 10769 10776 10772 10772 10777 10784 10790 10793 10789 10788 10791 10796 10798 10800 10803 10804 10805 10806 10807 10807 10807 10807 10807 10806 10805 10803 10801 10802 10800 10797 10795 10793 10789 10786 10784 10782 10779 10777 10775 10773
10687 10697 10699 10697 10701 10709 10726 10741 10750 10757 10758 10761 10761 10765 10773 10779 10781 10783 10779 10780 10783 10786 10787 10789 10791 10793 10793 10795 10795 10795 10795 10795 10794 10793 10790 10788 10786 10785 10782 10780 10780 10775 10770 10770 10768 10765 10761 10759 10757
10671 10682 10684 10683 10692 10705 10714 10728 10733 10743 10745 10753 10751 10755 10763 10769 10768 10771 10772 10769 10770 10771 10774 10776 10778 10778 10779 10781 10781 10782 10782 10780 10780 10778 10775 10773 10773 10771 10768 10767 10766 10760 10755 10754 10753 10750 10746 10744 10742
10657 10666 10671 10677 10685 10697 10703 10710 10722 10729 10733 10741 10740 10748 10753 10759 10753 10756 10758 10757 10758 10761 10762 10763 10763 10764 10766 10767 10767 10767 10767 10767 10765 10763 10761 10758 10758 10757 10755 10753 10750 10744 10740 10738 10737 10735 10732 10730 10728
10645 10653 10661 10669 10673 10683 10689 10700 10715 10710 10718 10729 10734 10737 10741 10745 10742 10737 10741 10746 10745 10747 10749 10750 10751 10753 10752 10753 10752 10755 10753 10751 10750 10749 10747 10744 10742 10741 10738 10736 10732 10728 10725 10723 10722 10720 10719 10716 10714
10632 10641 10651 10657 10661 10668 10677 10700 10695 10700 10701 10718 10724 10726 10726 10726 10729 10723 10723 10728 10734 10737 10736 10737 10738 10738 10737 10737 10738 10740 10741 10739 10735 10734 10732 10729 10727 10725 10722 10720 10717 10713 10711 10710 10708 10707 10704 10702 10701
10620 10634 10641 10643 10648 10657 10674 10690 10678 10687 10691 10703 10708 10707 10708 10711 10713 10714 10710 10713 10720 10726 10727 10724 10722 10724 10722 10722 10724 10725 10727 10725 10722 10721 10718 10716 10712 10711 10709 10707 10704 10701 10700 10698 10695 10693 10691 10689 10688
10608 10614 10621 10630 10640 10651 10663 10678 10665 10670 10676 10683 10692 10694 10694 10697 10699 10699 10704 10703 10702 10708 10713 10715 10712 10708 10707 10707 10711 10712 10711 10711 10711 10711 10706 10704 10701 10699 10698 10697 10694 10691 10689 10687 10684 10682 10679 10677 10675
10593 10607 10616 10620 10627 10640 10647 10660 10658 10651 10665 10669 10674 10680 10685 10685 10677 10686 10690 10690 10690 10689 10695 10698 10701 10699 10696 10693 10693 10695 10697 10697 10697 10697 10694 10690 10688 10688 10686 10686 10683 10679 10678 10676 10673 10671 10668 10667 10664
10582 10594 10603 10607 10614 10628 10633 10645 10645 10644 10650 10654 10659 10662 10664 10670 10669 10667 10671 10678 10679 10676 10676 10678 10681 10685 10685 10682 10678 10678 10679 10684 10682 10683 10682 10676 10674 10676 10673 10674 10670 10666 10665 10663 10661 10659 10657 10656 10653
10571 10580 10584 10593 10604 10617 10624 10634 10634 10632 10638 10639 10642 10646 10649 10651 10653 10654 10657 10658 10662 10664 10660 10659 10662 10666 10668 10670 10666 10666 10663 10669 10670 10669 10665 10662 10663 10663 10662 10662 10657 10654 10652 10650 10648 10647 10645 10643 10641
10560 10565 10575 10584 10594 10606 10611 10624 10618 10620 10622 10625 10627 10629 10632 10634 10637 10639 10643 10645 10646 10648 10648 10646 10643 10642 10646 10649 10651 10651 10650 10651 10653 10655 10653 10648 10648 10648 10651 10650 10646 10643 10639 10637 10634 10633 10633 10631 10630
10545 10552 10562 10572 10584 10595 10597 10610 10600 10602 10604 10609 10610 10613 10615 10621 10623 10625 10627 10628 10629 10630 10629 10628 10627 10625 10622 10624 10631 10634 10634 10634 10634 10636 10637 10637 10634 10632 10634 10637 10635 10631 10629 10625 10622 10619 10618 10618 10617
10533 10540 10551 10562 10570 10583 10578 10592 10592 10579 10586 10592 10593 10595 10601 10605 10610 10610 10610 10611 10608 10606 10606 10606 10605 10603 10602 10603 10608 10613 10615 10616 10616 10615 10618 10618 10620 10621 10619 10621 10620 10618 10616 10614 10611 10608 10605 10604 10603
10519 10529 10542 10552 10559 10565 10565 10577 10576 10567 10566 10572 10580 10583 10588 10591 10593 10593 10593 10591 10588 10585 10585 10584 10583 10580 10579 10581 10583 10586 10590 10595 10598 10597 10597 10598 10600 10603 10606 10604 10605 10603 10603 10600 10598 10596 10593 10589 10588
10511 10523 10531 10537 10544 10549 10553 10560 10551 10550 10555 10561 10563 10569 10575 10577 10575 10572 10569 10566 10564 10561 10559 10559 10558 10555 10555 10555 10556 10560 10565 10569 10574 10578 10579 10578 10581 10584 10586 10589 10590 10589 10587 10587 10586 10583 10581 10577 10574
10502 10512 10519 10526 10533 10538 10540 10540 10535 10537 10547 10553 10556 10555 10556 10556 10554 10551 10547 10543 10540 10538 10534 10529 10529 10528 10527 10529 10532 10536 10541 10545 10550 10552 10558 10561 10561 10563 10564 10570 10574 10574 10572 10572 10572 10569 10566 10564 10560
10493 10500 10508 10515 10522 10525 10527 10523 10521 10531 10536 10540 10542 10542 10540 10539 10536 10530 10525 10519 10514 10509 10505 10501 10498 10498 10498 10500 10503 10509 10516 10520 10524 10528 10534 10540 10542 10543 10543 10549 10555 10558 10558 10557 10555 10554 10551 10548 10545
10483 10489 10497 10504 10510 10513 10513 10509 10518 10521 10524 10524 10528 10527 10526 10522 10517 10509 10501 10496 10490 10484 10478 10473 10469 10469 10468 10472 10477 10481 10488 10491 10497 10505 10509 10514 10520 10525 10523 10527 10532 10538 10540 10540 10539 10538 10535 10533 10531
10473 10480 10487 10493 10496 10501 10504 10499 10504 10510 10511 10513 10509 10508 10505 10501 10494 10487 10480 10470 10463 10458 10451 10448 10444 10439 10438 10442 10449 10454 10459 10463 10470 10477 10483 10490 10500 10503 10506 10509 10513 10517 10522 10524 10523 10520 10519 10519 10514